Location: Strawberry
(45.6646°N, 111.9596°W)
Time: 13:06:09
(UTC+00:00)

Tiros 1 - All Passes

Search period start: 05 October 2022 00:00
Search period end: 15 October 2022 00:00
Orbit: 629 x 663 km, 48.4° (Epoch: 05 October)

Date Brightness Start Highest point End Pass type
(mag) Time Alt. Az. Time Alt. Az. Time Alt. Az.
05 Oct - 05:27:16 10° SSW 05:31:32 32° SE 05:35:47 10° E night (unlit)
05 Oct - 07:08:36 10° WSW 07:13:26 87° NNW 07:18:15 10° ENE night (unlit)
05 Oct - 08:51:07 10° W 08:55:53 62° N 09:00:36 10° E visible
05 Oct - 10:33:29 10° WNW 10:38:17 83° SSW 10:43:01 10° ESE visible
05 Oct - 12:16:07 10° W 12:20:02 26° SW 12:23:54 10° SSE visible
06 Oct - 04:12:44 10° S 04:15:28 15° SE 04:18:13 10° E night (unlit)
06 Oct - 05:52:13 10° SW 05:56:56 57° SSE 06:01:39 10° ENE night (unlit)
06 Oct - 07:34:22 10° W 07:39:10 67° N 07:43:56 10° ENE night (unlit)
06 Oct - 09:16:52 10° WNW 09:21:41 70° NNE 09:26:26 10° E visible
06 Oct - 10:59:11 10° WNW 11:03:49 51° SSW 11:08:24 10° SE visible
06 Oct - 12:43:10 10° WSW 12:45:11 13° SW 12:47:11 10° SSW visible
07 Oct - 04:36:30 10° SSW 04:40:40 30° SE 04:44:50 10° E night (unlit)
07 Oct - 06:17:42 10° WSW 06:22:31 89° SE 06:27:21 10° ENE night (unlit)
07 Oct - 08:00:11 10° W 08:04:57 62° N 08:09:42 10° E night (unlit)
07 Oct - 09:42:33 10° WNW 09:47:22 87° SSW 09:52:08 10° ESE visible
07 Oct - 11:25:08 10° W 11:29:11 28° SW 11:33:11 10° SSE visible
08 Oct - 03:22:12 10° SSE 03:24:38 14° SE 03:27:03 10° ESE night (unlit)
08 Oct - 05:01:22 10° SW 05:06:02 54° SSE 05:10:45 10° ENE night (unlit)
08 Oct - 06:43:25 10° W 06:48:14 69° N 06:53:01 10° ENE night (unlit)
08 Oct - 08:25:56 10° WNW 08:30:45 68° N 08:35:30 10° E night (unlit)
08 Oct - 10:08:15 10° WNW 10:12:56 55° SSW 10:17:33 10° SE visible
08 Oct - 11:51:55 10° WSW 11:54:21 14° SW 11:56:47 10° SSW visible
09 Oct - 03:45:45 10° SSW 03:49:48 28° SE 03:53:52 10° E visible
09 Oct - 05:26:47 10° WSW 05:31:36 86° SSE 05:36:26 10° ENE night (unlit)
09 Oct - 07:09:15 10° W 07:14:02 62° N 07:18:47 10° E night (unlit)
09 Oct - 08:51:38 10° WNW 08:56:28 89° NNE 09:01:14 10° ESE night (unlit)
09 Oct - 10:34:09 10° W 10:38:19 30° SW 10:42:27 10° SSE visible
10 Oct - 02:31:47 10° SSE 02:33:47 13° SE 02:35:48 10° ESE visible
10 Oct - 04:10:31 10° SW 04:15:09 50° SSE 04:19:49 10° ENE visible
10 Oct - 05:52:29 10° W 05:57:18 71° NNW 06:02:07 10° ENE night (unlit)
10 Oct - 07:35:01 10° WNW 07:39:49 67° N 07:44:35 10° E night (unlit)
10 Oct - 09:17:19 10° WNW 09:22:03 58° SSW 09:26:42 10° SE night (unlit)
10 Oct - 11:00:44 10° W 11:03:30 15° SW 11:06:16 10° S night (unlit)
11 Oct - 02:55:01 10° SSW 02:58:55 25° SE 03:02:52 10° E visible
11 Oct - 04:35:52 10° WSW 04:40:41 82° SSE 04:45:30 10° ENE visible
11 Oct - 06:18:18 10° W 06:23:05 62° N 06:27:51 10° E night (unlit)
11 Oct - 08:00:42 10° WNW 08:05:32 86° NNE 08:10:19 10° ESE night (unlit)
11 Oct - 09:43:10 10° W 09:47:26 33° SW 09:51:40 10° SSE night (unlit)
12 Oct - 01:41:29 10° SSE 01:42:56 11° SE 01:44:24 10° ESE visible
12 Oct - 03:19:40 10° SW 03:24:15 47° SSE 03:28:52 10° ENE visible
12 Oct - 05:01:33 10° W 05:06:22 73° NNW 05:11:11 10° ENE visible
12 Oct - 06:44:04 10° WNW 06:48:52 66° N 06:53:39 10° E night (unlit)
12 Oct - 08:26:23 10° WNW 08:31:08 63° SSW 08:35:50 10° SE night (unlit)
12 Oct - 10:09:35 10° W 10:12:39 17° SW 10:15:41 10° S night (unlit)
13 Oct - 02:04:16 10° SSW 02:08:03 23° SE 02:11:51 10° E visible
13 Oct - 03:44:57 10° WSW 03:49:45 78° SSE 03:54:35 10° ENE visible
13 Oct - 05:27:21 10° W 05:32:08 63° N 05:36:54 10° ENE night (unlit)
13 Oct - 07:09:46 10° WNW 07:14:36 83° NNE 07:19:25 10° ESE night (unlit)
13 Oct - 08:52:11 10° W 08:56:34 35° SW 09:00:53 10° SSE night (unlit)
14 Oct - 02:28:49 10° SW 02:33:21 43° SSE 02:37:54 10° ENE visible
14 Oct - 04:10:36 10° W 04:15:25 75° NNW 04:20:15 10° ENE visible
14 Oct - 05:53:07 10° WNW 05:57:55 65° N 06:02:42 10° E night (unlit)
14 Oct - 07:35:26 10° WNW 07:40:13 67° SSW 07:44:57 10° SE night (unlit)
14 Oct - 09:18:29 10° W 09:21:47 19° SW 09:25:04 10° S night (unlit)
